GW4712 Weather Reports


time (UTC)temp
F
wind
direction
speed
knots
gust
knots
rain 1hr
in
rain 24hr
in
rain mn
in
humidity
%
barometer
mb
20260906141152 69 16 0.0 0.0 0.00 0.00 0.00 97 1016.6
20260906140651 69 16 0.0 0.0 0.00 0.00 0.00 97 1016.5
20260906140146 69 32 0.0 0.0 0.00 0.00 0.00 97 1016.6
20260906135643 69 20 0.0 0.0 0.00 0.00 0.00 97 1016.2
20260906135134 69 20 0.0 0.0 0.00 0.00 0.00 98 1016.4
20260906134630 69 20 0.0 0.0 0.00 0.00 0.00 97 1016.2
20260906134130 69 20 0.0 0.0 0.00 0.00 0.00 97 1016.2
20260906133625 69 19 0.0 0.0 0.00 0.00 0.00 98 1016.3
20260906133120 69 19 0.0 0.0 0.00 0.00 0.00 98 1016.4
20260906132615 69 71 0.0 0.0 0.00 0.00 0.00 98 1016.2
20260906132111 69 72 0.0 0.0 0.00 0.00 0.00 98 1016.3
20260906131606 69 72 0.0 0.0 0.00 0.00 0.00 98 1016.3
20260906131102 69 73 0.0 0.0 0.00 0.00 0.00 97 1016.2
20260906130601 68 52 0.0 0.0 0.00 0.00 0.00 99 1016.1
20260906130057 68 51 0.0 0.0 0.00 0.00 0.00 98 1016.1
20260906125554 69 13 0.0 0.0 0.00 0.00 0.00 99 1016.1
20260906125048 69 13 0.0 0.0 0.00 0.00 0.00 99 1016.0
20260906124544 68 13 0.0 0.0 0.00 0.00 0.00 99 1016.0
20260906124038 68 12 0.0 0.0 0.00 0.00 0.00 99 1015.8
20260906123538 69 12 0.0 0.0 0.00 0.00 0.00 99 1015.9
20260906123033 68 12 0.0 0.0 0.00 0.00 0.00 99 1016.0
20260906122527 68 12 0.0 0.0 0.00 0.00 0.00 99 1015.9
20260906122024 68 46 0.0 0.0 0.00 0.00 0.00 99 1015.7
20260906121520 68 45 0.0 0.0 0.00 0.00 0.00 99 1015.8
20260906121015 68 46 0.0 0.0 0.00 0.00 0.00 99 1015.6
20260906120510 68 46 0.0 0.0 0.00 0.00 0.00 99 1015.5
20260906120007 68 46 0.0 0.0 0.00 0.00 0.00 99 1015.5
20260906115501 69 45 0.0 0.0 0.00 0.00 0.00 99 1015.5
20260906114955 69 45 0.0 0.0 0.00 0.00 0.00 99 1015.3
20260906114450 68 45 0.0 0.0 0.00 0.00 0.00 99 1015.4
20260906113946 68 45 0.0 0.0 0.00 0.00 0.00 99 1015.3
20260906113445 68 45 0.0 0.0 0.00 0.00 0.00 99 1015.2
20260906112940 68 45 0.0 0.0 0.00 0.00 0.00 99 1014.9
20260906112436 68 45 0.0 0.0 0.00 0.00 0.00 99 1015.1
20260906111931 68 45 0.0 0.0 0.00 0.00 0.00 99 1015.1
20260906111431 68 45 0.0 0.0 0.00 0.00 0.00 99 1014.9
20260906110925 68 37 0.0 0.0 0.00 0.00 0.00 99 1014.8
20260906110421 68 7 0.0 0.0 0.00 0.00 0.00 99 1014.9
20260906105920 68 7 0.0 0.0 0.00 0.00 0.00 99 1014.6
20260906105416 68 7 0.0 0.0 0.00 0.00 0.00 99 1014.5
20260906104912 68 7 0.0 0.0 0.00 0.00 0.00 99 1014.5
20260906104410 68 7 0.0 0.0 0.00 0.00 0.00 99 1014.5
20260906103909 68 15 0.0 0.0 0.00 0.00 0.00 99 1014.4
20260906103407 68 43 0.0 0.0 0.00 0.00 0.00 99 1014.3
20260906102904 68 43 0.0 0.0 0.00 0.00 0.00 99 1014.1
20260906102402 68 30 0.0 0.0 0.00 0.00 0.00 99 1014.2
20260906101857 68 87 0.0 0.0 0.00 0.00 0.00 99 1014.4
20260906101353 68 87 0.0 0.0 0.00 0.00 0.00 99 1014.2
20260906100848 68 87 0.0 0.0 0.00 0.00 0.00 99 1014.2
20260906100347 69 87 0.0 0.0 0.00 0.00 0.00 99 1014.0
20260906095842 69 87 0.0 0.0 0.00 0.00 0.00 99 1014.2
20260906095338 69 87 0.0 0.0 0.00 0.00 0.00 99 1014.4
20260906094837 69 87 0.0 0.0 0.00 0.00 0.00 99 1014.2
20260906094332 69 87 0.0 0.0 0.00 0.00 0.00 99 1014.1
20260906093829 69 87 0.0 0.0 0.00 0.00 0.00 99 1014.4
20260906093324 69 87 0.0 0.0 0.00 0.00 0.00 99 1014.4
20260906092819 69 87 0.0 0.0 0.00 0.00 0.00 99 1014.3
20260906092314 69 87 0.0 0.0 0.00 0.00 0.00 99 1014.2
20260906091810 69 87 0.0 0.0 0.00 0.00 0.00 99 1014.3
20260906091306 69 87 0.0 0.0 0.00 0.00 0.00 99 1014.4
20260906090802 69 87 0.0 0.0 0.00 0.00 0.00 99 1014.1
20260906090301 69 87 0.0 0.0 0.00 0.00 0.00 99 1014.2
20260906085800 69 87 0.0 0.0 0.00 0.00 0.00 99 1014.3
20260906085259 69 87 0.0 0.0 0.00 0.00 0.00 99 1014.4
20260906084749 69 87 0.0 0.0 0.00 0.00 0.00 99 1014.2
20260906084248 69 87 0.0 0.0 0.00 0.00 0.00 99 1014.1
20260906083743 69 87 0.0 0.0 0.00 0.00 0.00 99 1014.1
20260906083238 69 87 0.0 0.0 0.00 0.00 0.00 99 1014.3
20260906082733 69 87 0.0 0.0 0.00 0.00 0.00 99 1014.1
20260906082228 69 87 0.0 0.0 0.00 0.00 0.00 99 1014.2
20260906081724 69 87 0.0 0.0 0.00 0.00 0.00 99 1014.2
20260906081219 69 87 0.0 0.0 0.00 0.00 0.00 99 1014.0
20260906080716 69 87 0.0 0.0 0.00 0.00 0.00 99 1014.2
20260906080212 69 87 0.0 0.0 0.00 0.00 0.00 99 1014.1
20260906075711 69 87 0.0 0.0 0.00 0.00 0.00 99 1013.9
20260906075206 68 87 0.0 0.0 0.00 0.00 0.00 99 1014.0
20260906074701 68 87 0.0 0.0 0.00 0.00 0.00 99 1013.9
20260906074200 68 87 0.0 0.0 0.00 0.00 0.00 99 1014.0
20260906073655 68 87 0.0 0.0 0.00 0.00 0.00 99 1014.0
20260906073146 68 87 0.0 0.0 0.00 0.00 0.00 99 1014.1
20260906072640 68 87 0.0 0.0 0.00 0.00 0.00 99 1014.1
20260906072136 68 87 0.0 0.0 0.00 0.00 0.00 99 1014.3
20260906071632 68 87 0.0 0.0 0.00 0.00 0.00 99 1014.2
20260906071132 68 87 0.0 0.0 0.00 0.00 0.00 99 1014.3
20260906070629 68 87 0.0 0.0 0.00 0.00 0.00 99 1014.2
20260906070124 68 87 0.0 0.0 0.00 0.00 0.00 99 1014.2
20260906065623 68 87 0.0 0.0 0.00 0.00 0.00 99 1014.4
20260906065119 68 87 0.0 0.0 0.00 0.00 0.00 99 1014.3
20260906064614 68 87 0.0 0.0 0.00 0.00 0.00 99 1014.5
20260906064109 68 87 0.0 0.0 0.00 0.00 0.00 99 1014.3
20260906063604 68 87 0.0 0.0 0.00 0.00 0.00 99 1014.5
20260906063100 68 87 0.0 0.0 0.00 0.00 0.00 99 1014.4
20260906062556 68 87 0.0 0.0 0.00 0.00 0.00 99 1014.2
20260906062055 68 87 0.0 0.0 0.00 0.00 0.00 99 1014.3
20260906061551 68 87 0.0 0.0 0.00 0.00 0.00 99 1014.0
20260906061050 68 87 0.0 0.0 0.00 0.00 0.00 99 1014.3
20260906060547 68 87 0.0 0.0 0.00 0.00 0.00 99 1014.1
20260906060044 68 87 0.0 0.0 0.00 0.00 0.00 99 1014.1
20260906055540 68 87 0.0 0.0 0.00 0.00 0.00 99 1014.2
20260906055036 68 87 0.0 0.0 0.00 0.00 0.00 99 1014.1
20260906054535 68 87 0.0 0.0 0.00 0.00 0.00 99 1014.1
20260906054031 68 87 0.0 0.0 0.00 0.00 0.00 99 1014.2
20260906053527 68 87 0.0 0.0 0.00 0.00 0.00 99 1014.0
20260906053022 68 87 0.0 0.0 0.00 0.00 0.00 99 1013.9
20260906052518 68 87 0.0 0.0 0.00 0.00 0.00 99 1013.9
20260906052015 69 87 0.0 0.0 0.00 0.00 0.00 99 1014.0
20260906051511 69 87 0.0 0.0 0.00 0.00 0.00 99 1014.0
20260906051006 69 87 0.0 0.0 0.00 0.00 0.00 99 1014.0
20260906050506 69 87 0.0 0.0 0.00 0.00 0.00 99 1014.0
20260906050000 69 87 0.0 0.0 0.00 0.00 0.00 99 1014.3
20260906045459 69 87 0.0 0.0 0.00 0.00 0.00 99 1014.3
20260906044954 69 87 0.0 0.0 0.00 0.00 0.00 99 1014.3
20260906044449 69 87 0.0 0.0 0.00 0.00 0.00 99 1014.2
20260906043945 69 87 0.0 0.0 0.00 0.00 0.00 99 1014.0
20260906043440 69 87 0.0 0.0 0.00 0.00 0.00 99 1014.1
20260906042936 69 87 0.0 0.0 0.00 0.00 0.00 99 1014.2
20260906042435 69 87 0.0 0.0 0.00 0.00 0.00 99 1014.1
20260906041930 69 87 0.0 0.0 0.00 0.00 0.00 99 1014.2
20260906041426 69 87 0.0 0.0 0.00 0.00 0.00 99 1014.3
20260906040926 69 87 0.0 0.0 0.00 0.00 0.00 99 1014.1
20260906040421 69 87 0.0 0.0 0.00 0.86 0.86 99 1014.1
20260906035916 69 87 0.0 0.0 0.00 0.86 0.86 99 1014.3
20260906035412 69 87 0.0 0.0 0.00 0.86 0.86 99 1014.2
20260906034907 69 87 0.0 0.0 0.00 0.86 0.86 99 1014.2
20260906034401 69 87 0.0 0.0 0.00 0.86 0.86 99 1014.2
20260906033857 69 87 0.0 0.0 0.00 0.86 0.86 99 1014.2
20260906033357 69 87 0.0 0.0 0.00 0.86 0.86 99 1014.3
20260906032853 69 87 0.0 0.0 0.00 0.86 0.86 99 1014.2
20260906032349 69 87 0.0 0.0 0.00 0.86 0.86 99 1014.4
20260906031844 69 87 0.0 0.0 0.00 0.86 0.86 99 1014.6
20260906031339 70 87 0.0 0.0 0.00 0.86 0.86 99 1014.5
20260906030839 70 87 0.0 0.0 0.00 0.86 0.86 99 1014.5
20260906030334 70 87 0.0 0.0 0.00 0.86 0.86 99 1014.6
20260906025829 70 87 0.0 0.0 0.00 0.86 0.86 99 1014.4
20260906025323 70 87 0.0 0.0 0.00 0.86 0.86 99 1014.9
20260906024822 70 87 0.0 0.0 0.00 0.86 0.86 99 1014.8
20260906024321 70 87 0.0 0.0 0.00 0.86 0.86 99 1014.6
20260906023817 70 87 0.0 0.0 0.00 0.86 0.86 99 1014.4
20260906023313 70 87 0.0 0.0 0.00 0.86 0.86 99 1014.4
20260906022808 71 87 0.0 0.0 0.00 0.86 0.86 99 1014.5
20260906022306 71 87 0.0 0.0 0.00 0.86 0.86 99 1014.4
20260906021759 71 87 0.0 0.0 0.00 0.86 0.86 99 1014.4
20260906021258 71 87 0.0 0.0 0.00 0.86 0.86 99 1014.5
20260906020752 71 88 0.0 0.0 0.00 0.86 0.86 99 1014.2
20260906020246 71 88 0.0 0.0 0.00 0.86 0.86 99 1013.9
20260906015741 71 88 0.0 0.0 0.00 0.86 0.86 99 1014.1
20260906015239 71 88 0.0 0.0 0.00 0.86 0.86 99 1014.1
20260906014734 71 88 0.0 0.0 0.00 0.86 0.86 99 1014.3
20260906014230 71 88 0.0 0.0 0.00 0.86 0.86 99 1014.3
20260906013726 71 88 0.0 0.0 0.05 0.86 0.86 99 1014.2
20260906013221 71 88 0.0 0.0 0.05 0.86 0.86 99 1014.4
20260906012715 71 88 0.0 0.0 0.07 0.85 0.85 99 1014.1
20260906012210 71 90 0.0 0.0 0.73 0.85 0.85 99 1014.2
20260906011705 71 91 0.0 0.0 1.13 0.84 0.84 99 1014.3
20260906011200 71 93 0.0 0.0 0.50 0.70 0.70 99 1014.1
20260906010655 72 187 0.0 0.0 0.19 0.63 0.63 99 1013.9
20260906010152 72 72 0.0 0.0 0.35 0.62 0.62 99 1013.7
20260906005651 72 70 0.0 0.0 0.35 0.60 0.60 99 1014.0
20260906005151 72 8 0.0 0.0 0.35 0.56 0.56 98 1013.9
20260906004649 72 1 0.0 0.0 0.42 0.54 0.54 98 1013.9
20260906004144 73 33 0.0 0.0 0.54 0.50 0.50 98 1013.5
20260906003640 73 51 0.0 0.0 0.35 0.47 0.47 97 1013.8
20260906003136 73 355 1.7 5.2 0.00 0.41 0.41 96 1013.6
20260906002630 73 222 0.0 0.0 0.00 0.41 0.41 97 1013.1
20260906002125 73 222 0.0 0.0 0.00 0.41 0.41 97 1013.1
20260906001621 73 222 0.0 0.0 0.00 0.41 0.41 97 1013.0
20260906001120 73 222 0.0 0.0 0.00 0.41 0.41 97 1012.9
20260906000616 73 222 0.0 0.0 0.00 0.41 0.41 97 1012.8
20260906000112 72 222 0.0 0.0 0.00 0.41 0.41 97 1013.1
20260905235610 73 222 0.0 0.0 0.00 0.41 0.41 96 1013.0
20260905235106 73 222 0.0 0.0 0.00 0.41 0.41 96 1013.0
20260905234601 73 222 0.0 0.0 0.00 0.41 0.41 95 1013.0
20260905234056 74 222 0.0 0.0 0.00 0.41 0.41 94 1013.1
20260905233556 74 222 0.0 0.0 0.00 0.41 0.41 93 1012.9
20260905233051 75 222 0.0 0.0 0.00 0.41 0.41 92 1012.7
20260905232546 75 223 0.0 0.0 0.00 0.41 0.41 91 1012.9
20260905232041 76 223 0.0 0.0 0.00 0.41 0.41 90 1013.0
20260905231537 76 217 0.0 0.0 0.00 0.41 0.41 90 1013.0
20260905231033 76 217 0.0 0.0 0.00 0.41 0.41 90 1012.9
20260905230532 77 218 0.0 0.0 0.00 0.41 0.41 88 1013.1
20260905230030 77 218 0.0 0.0 0.00 0.41 0.41 88 1012.9
20260905225525 78 218 0.0 0.0 0.00 0.41 0.41 86 1013.0
20260905225020 78 218 0.0 0.0 0.00 0.41 0.41 86 1012.9
20260905224515 79 219 0.0 0.0 0.00 0.41 0.41 85 1012.9
20260905224015 80 231 0.0 0.0 0.00 0.41 0.41 84 1013.0
20260905223513 82 235 0.0 0.0 0.00 0.41 0.41 79 1013.0
20260905223008 82 270 0.0 0.0 0.00 0.41 0.41 75 1013.0
20260905222507 83 251 0.0 0.0 0.00 0.41 0.41 72 1012.9
20260905222002 83 276 0.0 0.0 0.00 0.41 0.41 71 1013.0
20260905221459 83 250 0.0 0.0 0.00 0.41 0.41 71 1013.1
20260905220955 83 3 0.0 0.0 0.00 0.41 0.41 69 1012.9
20260905220451 84 271 0.0 0.0 0.00 0.41 0.41 69 1013.0
20260905215949 84 322 0.0 0.0 0.00 0.41 0.41 68 1013.1
20260905215446 84 4 0.0 0.0 0.00 0.41 0.41 67 1012.9
20260905214942 83 22 0.0 0.0 0.00 0.41 0.41 71 1012.9
20260905214437 84 276 0.0 0.0 0.00 0.41 0.41 71 1012.9
20260905213937 84 249 0.0 0.0 0.00 0.41 0.41 71 1012.8
20260905213434 84 243 0.0 0.0 0.00 0.41 0.41 68 1012.8
20260905212928 84 253 0.0 0.0 0.00 0.41 0.41 68 1012.8
20260905212423 84 246 0.0 0.0 0.00 0.41 0.41 68 1012.7
20260905211922 84 11 0.0 0.0 0.00 0.41 0.41 66 1012.5
20260905211418 84 345 0.0 0.0 0.00 0.41 0.41 69 1012.5
20260905210914 83 262 0.0 0.0 0.00 0.41 0.41 74 1012.5
20260905210409 83 303 0.0 0.0 0.00 0.41 0.41 70 1012.5
20260905205908 83 301 0.0 0.0 0.00 0.41 0.41 69 1012.7
20260905205357 83 293 0.0 0.0 0.00 0.41 0.41 71 1012.6
20260905204856 84 265 0.0 0.0 0.00 0.41 0.41 67 1012.8
20260905204352 84 265 0.0 0.0 0.00 0.41 0.41 66 1012.8
20260905203845 84 347 0.0 0.0 0.00 0.41 0.41 71 1012.9
20260905203341 83 4 0.0 0.0 0.00 0.41 0.41 68 1013.0
20260905202837 82 23 0.0 0.0 0.00 0.41 0.41 71 1013.1
20260905202331 83 358 0.0 0.0 0.00 0.41 0.41 72 1012.9
20260905201827 83 307 0.0 0.0 0.00 0.41 0.41 71 1013.0
20260905201322 84 300 0.0 0.0 0.00 0.41 0.41 66 1012.9
20260905200822 83 34 0.0 0.0 0.00 0.41 0.41 69 1012.9
20260905200318 82 69 0.0 0.0 0.00 0.41 0.41 72 1013.0
20260905195815 82 9 0.0 0.0 0.00 0.41 0.41 70 1013.2
20260905195311 81 34 0.0 0.0 0.00 0.41 0.41 76 1013.3
20260905194807 82 39 0.0 0.0 0.00 0.41 0.41 73 1013.1
20260905194307 83 20 0.0 0.0 0.00 0.41 0.41 71 1013.3
20260905193806 84 244 0.0 0.0 0.00 0.41 0.41 67 1013.5
20260905193302 83 297 0.0 0.0 0.00 0.41 0.41 71 1013.6
20260905192757 84 241 0.0 0.0 0.00 0.41 0.41 68 1013.9
20260905192253 83 246 0.0 0.0 0.00 0.41 0.41 67 1013.7
20260905191752 83 291 0.0 0.0 0.00 0.41 0.41 73 1013.8
20260905191250 83 295 0.0 0.0 0.00 0.41 0.41 70 1013.7
20260905190749 82 299 0.0 0.0 0.00 0.41 0.41 69 1013.7
20260905190248 83 260 0.0 0.0 0.00 0.41 0.41 70 1013.9
20260905185747 83 260 0.0 0.0 0.00 0.41 0.41 69 1013.8
20260905185243 83 241 0.0 0.0 0.00 0.41 0.41 72 1014.1
20260905184736 82 303 0.0 0.0 0.00 0.41 0.41 73 1014.1
20260905184236 82 296 0.0 0.0 0.00 0.41 0.41 77 1014.2
20260905183735 83 249 0.0 0.0 0.00 0.41 0.41 70 1014.1
20260905183231 83 262 0.0 0.0 0.00 0.41 0.41 67 1014.3
20260905182724 82 221 0.0 0.0 0.00 0.41 0.41 69 1014.2
20260905182224 82 284 0.0 0.0 0.00 0.41 0.41 77 1014.1
20260905181719 80 274 0.0 0.0 0.00 0.41 0.41 75 1014.2
20260905181218 80 344 0.0 0.0 0.00 0.41 0.41 76 1014.1
20260905180713 82 56 0.0 0.0 0.00 0.41 0.41 73 1014.2
20260905180209 82 163 0.0 0.0 0.00 0.41 0.41 74 1014.1
20260905175708 82 143 0.0 0.0 0.00 0.41 0.41 72 1014.2
20260905175203 81 121 0.0 0.0 0.00 0.41 0.41 74 1014.3
20260905174658 81 74 0.0 0.0 0.00 0.41 0.41 78 1014.4
20260905174154 81 307 0.0 0.0 0.00 0.41 0.41 73 1014.4
20260905173651 81 251 0.0 0.0 0.00 0.41 0.41 72 1014.4
20260905173146 81 261 0.0 0.0 0.00 0.41 0.41 72 1014.6
20260905172645 81 352 0.0 0.0 0.00 0.41 0.41 71 1014.7
20260905172145 80 298 0.0 0.0 0.00 0.41 0.41 75 1014.7
20260905171641 80 247 0.0 0.0 0.00 0.41 0.41 76 1014.8
20260905171137 80 36 0.0 0.0 0.00 0.41 0.41 75 1015.1
20260905170633 80 165 0.0 0.0 0.00 0.41 0.41 78 1015.2
20260905170128 80 249 0.0 0.0 0.00 0.41 0.41 75 1015.4
20260905165623 79 252 0.0 0.0 0.00 0.41 0.41 74 1015.3
20260905165118 79 245 0.0 0.0 0.00 0.41 0.41 75 1015.5
20260905164613 79 248 0.0 0.0 0.00 0.41 0.41 77 1015.5
20260905164112 79 243 0.0 0.0 0.00 0.41 0.41 73 1015.3
20260905163609 78 266 0.0 0.0 0.00 0.41 0.41 74 1015.4
20260905163105 78 22 0.0 0.0 0.00 0.41 0.41 77 1015.4
20260905162601 77 355 0.0 0.0 0.00 0.41 0.41 77 1015.7
20260905162055 77 41 0.0 0.0 0.00 0.41 0.41 79 1015.5
20260905161555 77 105 0.0 0.0 0.00 0.41 0.41 85 1015.6
20260905161052 76 230 0.0 0.0 0.00 0.41 0.41 82 1015.8
20260905160551 76 248 0.0 0.0 0.00 0.41 0.41 81 1015.9
20260905160051 76 24 0.0 0.0 0.00 0.41 0.41 82 1015.9
20260905155545 76 53 0.0 0.0 0.00 0.41 0.41 85 1015.7
20260905155044 75 68 0.0 0.0 0.00 0.41 0.41 88 1015.9
20260905154539 75 89 0.0 0.0 0.00 0.41 0.41 89 1015.7
20260905154034 74 256 0.0 0.0 0.00 0.41 0.41 90 1015.7
20260905153530 73 281 0.0 0.0 0.00 0.41 0.41 93 1015.6
20260905153030 73 330 0.0 0.0 0.00 0.41 0.41 93 1015.7
20260905152525 73 320 0.0 0.0 0.00 0.41 0.41 95 1015.9
20260905152020 72 355 0.0 0.0 0.00 0.41 0.41 96 1016.2
20260905151515 72 355 0.0 0.0 0.00 0.41 0.41 97 1016.1
20260905151010 72 250 0.0 0.0 0.00 0.41 0.41 96 1016.3
20260905150505 72 9 0.0 0.0 0.00 0.41 0.41 97 1016.4
20260905150002 72 359 0.0 0.0 0.00 0.41 0.41 98 1016.4
20260905145457 72 4 0.0 0.0 0.00 0.41 0.41 98 1016.4
20260905144956 72 10 0.0 0.0 0.00 0.41 0.41 98 1016.3
20260905144452 73 7 0.0 0.0 0.00 0.41 0.41 98 1016.1
20260905143950 72 303 0.0 0.0 0.00 0.41 0.41 98 1015.5
20260905143449 72 306 0.0 0.0 0.00 0.41 0.41 99 1015.1
20260905142944 71 40 0.0 0.0 0.00 0.41 0.41 98 1014.6
20260905142443 71 43 0.0 0.0 0.00 0.41 0.41 98 1014.1
20260905141939 71 47 0.0 0.0 0.00 0.41 0.41 99 1013.8